Location: Strawberry
(45.6646°N, 111.9596°W)
Time: 20:58:13
(UTC+00:00)

Envisat - Pass Details

Date: 18 August 2022
Orbit: 764 x 765 km, 98.2° (Epoch: 27 September)

Event Time Altitude Azimuth Distance (km) Brightness Sun altitude
Rises 10:55:48 0° 25° (NNE) 3,242 7.4 -15.5°
Reaches altitude 10° 10:58:34 10° 40° (NE) 2,310 6.8 -15.1°
Maximum altitude 11:02:37 24° 93° (E) 1,563 5.2 -14.6°
Drops below altitude 10° 11:06:38 10° 146° (SE) 2,295 5.5 -14.0°
Sets 11:09:22 0° 160° (SSE) 3,216 6.1 -13.6°
